[[{"header":{"parameterUnit":"m.s-1","parameterCategory":1,"la1":30.2991,"la2":30.254,"lo1":-89.0895,"lo2":-89.0444,"dy":0.0017,"dx":0.0017,"nx":28,"ny":28,"refTime":"2025-11-08T03:00:00:Z","depth":0,"parameterNumber":2,"parameterNumberName":"U-component_of_WINDS"},"data":[0,0,0,0,0,0,0,0,0,0,0,0,0,0,0,0,0,0,0,0,0,0,0,0,0,0,0,0,0,0,0,0,0,0,0,0,0,0,0,0,0,0,0,0,0,0,0,0,0,0,0,0,0,0,0,0,0,0,3.1237,3.1238,0,3.1301,3.1302,3.1302,3.1302,3.1301,3.13,3.13,3.1365,3.1367,3.137,0,0,0,0,0,0,0,0,0,0,0,0,0,3.1117,3.1119,3.1237,3.1238,3.1239,3.1301,3.1302,3.1303,3.1302,3.1301,3.13,3.1299,3.1364,3.1367,3.137,0,0,0,0,0,0,0,0,0,0,0,0,0,3.1174,3.112,3.1237,3.1246,3.1247,3.1301,3.1302,3.1303,3.1302,3.1301,3.13,3.1299,3.1363,3.1367,3.1371,3.1419,0,0,3.1382,3.1384,0,0,0,0,0,0,0,0,3.1171,3.1178,3.1244,3.1245,3.1247,3.1292,3.1283,3.1342,3.1303,3.1282,3.13,3.1298,3.1342,3.1347,3.1362,3.1422,3.1425,3.1382,3.1385,3.1386,3.1387,0,0,0,0,0,0,0,3.1167,3.1176,3.1262,3.1245,3.1247,3.1248,3.1254,3.1294,3.1318,3.1283,3.1283,3.1291,3.1342,3.1358,3.1364,3.1426,3.1382,3.1386,3.1388,3.139,3.1532,3.1533,0,0,0,0,0,0,3.1161,3.1172,3.126,3.1264,3.1205,3.1251,3.1258,3.1279,3.1317,3.1322,3.1292,3.1291,3.1353,3.1359,3.1366,3.1427,3.1386,3.139,3.1392,3.1531,3.1532,3.1534,0,0,0,0,0,0,3.1158,3.1169,3.1258,3.1218,3.123,3.1254,3.1278,3.1281,3.1297,3.1324,3.1328,3.1304,3.1352,3.1361,3.1406,3.1429,3.1392,3.1395,3.1529,3.1531,3.1533,3.1548,0,0,0,0,0,0,3.1155,3.1168,3.1186,3.1219,3.1232,3.1297,3.1279,3.1283,3.1303,3.1302,3.1336,3.1341,3.1351,3.1401,3.141,3.1433,3.1398,3.1527,3.153,3.1532,3.1546,3.155,3.1555,0,0,0,0,0,3.115,3.1187,3.1186,3.1197,3.1255,3.1298,3.1305,3.1317,3.1305,3.1324,3.1342,3.134,3.1425,3.1406,3.1416,3.1441,3.1525,3.1529,3.1532,3.1543,3.1549,3.1555,0,0,0,0,0,0,3.1155,3.1191,3.1191,3.1239,3.1266,3.1298,3.1322,3.1323,3.1353,3.1351,3.1364,3.1372,3.1418,3.1434,3.1412,3.1491,3.1474,3.148,3.1479,3.1485,3.1489,3.1484,3.1401,0,0,0,0,0,3.1161,3.1193,3.1223,3.1263,3.1276,3.1297,3.1316,3.1323,3.1351,3.1362,3.1383,3.141,3.1444,3.1465,3.1497,3.1548,3.1557,3.1571,3.1575,3.1579,3.1584,3.1614,3.1621,3.1545,3.1545,3.1545,0,0,3.1175,3.1199,3.1218,3.1264,3.1285,3.1319,3.1306,3.1341,3.1366,3.1367,3.1412,3.1429,3.1461,3.151,3.1533,3.1525,3.1607,3.1583,3.1586,3.1589,3.1618,3.1625,3.1632,3.1548,3.1547,3.1547,0,0,3.1218,3.1238,3.1274,3.1296,3.1329,3.1343,3.1352,3.1385,3.1396,3.1442,3.1444,3.1474,3.1531,3.1554,3.1573,3.1628,3.1627,3.1638,3.1661,3.1691,3.1697,3.1702,3.1723,3.173,3.1642,3.1642,3.1642,0,3.123,3.128,3.1293,3.1329,3.135,3.1353,3.1391,3.1412,3.1453,3.1468,3.1459,3.1531,3.1553,3.1609,3.1622,3.1637,3.1649,3.1633,3.1695,3.17,3.1706,3.1726,3.1733,3.1644,3.1643,3.1643,3.1643,0,3.1296,3.133,3.1356,3.1397,3.1421,3.1457,3.1476,3.1499,3.1505,3.152,3.1568,3.1594,3.1633,3.1647,3.1652,3.1704,3.1698,3.1692,3.1675,3.1714,3.1733,3.174,3.1645,3.1645,3.1644,3.1644,0,0,3.134,3.139,3.1399,3.1418,3.1456,3.1484,3.1521,3.1559,3.158,3.1609,3.1642,3.1691,3.1686,3.1708,3.1716,3.1742,3.1786,3.1733,3.1734,3.1743,3.1847,3.1852,3.186,3.1786,3.1788,3.1789,3.1845,0,3.1387,3.1454,3.1468,3.1526,3.1559,3.1564,3.1597,3.1625,3.1641,3.1672,3.169,3.1725,3.1715,3.1729,3.1755,3.1775,3.1807,3.1771,3.1818,3.1819,3.181,3.187,3.1875,3.1926,3.1852,3.1853,3.1854,0,3.145,3.1482,3.1544,3.158,3.1594,3.1623,3.1661,3.169,3.1722,3.1733,3.1758,3.1765,3.1806,3.1787,3.1845,3.182,3.184,3.1853,3.1856,3.186,3.1839,3.1877,3.1942,3.195,3.1866,3.1865,3.1864,0,3.1479,3.1537,3.1582,3.1598,3.164,3.1662,3.168,3.1711,3.1734,3.1767,3.1782,3.1819,3.184,3.1869,3.1886,3.1871,3.1943,3.1925,3.1953,3.1953,3.1968,3.1967,3.2038,3.198,3.198,3.198,3.198,0,3.153,3.1567,3.1595,3.1623,3.1666,3.1682,3.1725,3.1744,3.1772,3.1804,3.1811,3.1841,3.1861,3.1895,3.1908,3.1955,3.1964,3.1974,3.1977,3.1974,3.1973,3.1987,3.1984,3.1982,3.1982,3.1981,3.1981,0,3.1568,3.1588,3.1637,3.1674,3.1684,3.1715,3.1747,3.1775,3.1792,3.1833,3.1843,3.187,3.1911,3.1931,3.198,3.199,3.2043,3.2043,3.2032,3.2033,3.206,3.2058,3.2144,3.2156,3.209,3.209,3.2091,0,3.1599,3.1628,3.1669,3.1691,3.1711,3.1746,3.177,3.1788,3.1813,3.1853,3.1876,3.1917,3.1951,3.2015,3.204,3.2079,3.2081,3.2108,3.2086,3.2083,3.2082,3.208,3.2084,3.2112,3.2112,3.2113,3.2113,0,3.1653,3.1662,3.1696,3.1734,3.1763,3.1794,3.1824,3.1842,3.1865,3.1893,3.1935,3.1961,3.2013,3.2054,3.2095,3.2115,3.2119,3.212,3.2129,3.2126,3.2118,3.2124,3.2043,3.2118,3.2118,3.2117,3.2117,3.2117,3.1689,3.1717,3.175,3.1788,3.1813,3.1842,3.1871,3.1892,3.1927,3.1971,3.198,3.2024,3.2058,3.2114,3.2136,3.2172,3.2166,3.2178,3.2181,3.2184,3.2186,3.2113,3.2179,3.2179,3.2179,3.2179,3.2179,0,3.1744,3.1767,3.1802,3.1845,3.1876,3.1877,3.1912,3.1937,3.1976,3.2008,3.2041,3.209,3.2131,3.2159,3.2201,3.2224,3.2227,3.2235,3.2233,3.2238,3.2189,3.2177,3.2232,3.2232,3.2232,3.2232,3.2232,3.2232,3.1777,3.1823,3.1837,3.1897,3.1919,3.1963,3.1983,3.201,3.2036,3.209,3.2124,3.2143,3.2174,3.2218,3.2256,3.2263,3.2279,3.2286,3.2294,3.2247,3.2241,3.2236,3.2226,3.2289,3.2289,3.2341,3.2341,3.2342]},{"header":{"parameterUnit":"m.s-1","parameterCategory":1,"la1":30.2991,"la2":30.254,"lo1":-89.0895,"lo2":-89.0444,"dy":0.0017,"dx":0.0017,"nx":28,"ny":28,"refTime":"2025-11-08T03:00:00:Z","depth":0,"parameterNumber":3,"parameterNumberName":"V-component_of_WINDS"},"data":[0,0,0,0,0,0,0,0,0,0,0,0,0,0,0,0,0,0,0,0,0,0,0,0,0,0,0,0,0,0,0,0,0,0,0,0,0,0,0,0,0,0,0,0,0,0,0,0,0,0,0,0,0,0,0,0,0,0,-6.7641,-6.7642,0,-6.7698,-6.7698,-6.7699,-6.7669,-6.7668,-6.7666,-6.7665,-6.7718,-6.772,-6.7723,0,0,0,0,0,0,0,0,0,0,0,0,0,-6.7504,-6.7506,-6.7641,-6.7642,-6.7642,-6.7698,-6.7698,-6.7699,-6.767,-6.7668,-6.7666,-6.7664,-6.7717,-6.772,-6.7723,0,0,0,0,0,0,0,0,0,0,0,0,0,-6.7562,-6.7507,-6.7641,-6.7634,-6.7634,-6.7698,-6.7698,-6.7699,-6.767,-6.7668,-6.7665,-6.7663,-6.7716,-6.772,-6.7724,-6.7795,0,0,-6.7737,-6.7739,0,0,0,0,0,0,0,0,-6.7559,-6.7567,-6.7635,-6.7635,-6.7635,-6.7674,-6.7669,-6.7731,-6.767,-6.7656,-6.7665,-6.7662,-6.7705,-6.771,-6.7725,-6.7798,-6.78,-6.7737,-6.774,-6.7742,-6.7743,0,0,0,0,0,0,0,-6.7555,-6.7564,-6.7663,-6.7636,-6.7636,-6.7628,-6.7633,-6.7681,-6.7692,-6.7657,-6.7655,-6.7663,-6.7704,-6.7721,-6.7726,-6.7801,-6.7737,-6.7741,-6.7743,-6.7745,-6.7937,-6.794,0,0,0,0,0,0,-6.7552,-6.7561,-6.7661,-6.7665,-6.7591,-6.7632,-6.7638,-6.7664,-6.7692,-6.7694,-6.7665,-6.7661,-6.7715,-6.7721,-6.7728,-6.7815,-6.7742,-6.7745,-6.7748,-6.7935,-6.7938,-6.7941,0,0,0,0,0,0,-6.7549,-6.7561,-6.7659,-6.7613,-6.7625,-6.7637,-6.7665,-6.7666,-6.7683,-6.7697,-6.7699,-6.768,-6.7714,-6.7722,-6.778,-6.7816,-6.7747,-6.7751,-6.7932,-6.7936,-6.7939,-6.7988,0,0,0,0,0,0,-6.7545,-6.756,-6.7588,-6.7614,-6.7627,-6.7711,-6.7668,-6.7669,-6.7691,-6.7687,-6.7712,-6.7714,-6.7712,-6.7774,-6.7784,-6.7821,-6.7755,-6.7928,-6.7934,-6.7938,-6.7984,-6.7993,-6.8002,0,0,0,0,0,-6.754,-6.7597,-6.7589,-6.7601,-6.7662,-6.7713,-6.7721,-6.7719,-6.7694,-6.7722,-6.7731,-6.7713,-6.7811,-6.778,-6.7791,-6.783,-6.7926,-6.7932,-6.7938,-6.7979,-6.7992,-6.8002,0,0,0,0,0,0,-6.7572,-6.76,-6.7592,-6.7659,-6.7684,-6.7708,-6.7742,-6.7732,-6.7763,-6.7757,-6.7753,-6.7759,-6.782,-6.783,-6.7795,-6.7902,-6.7864,-6.7873,-6.7892,-6.7904,-6.7913,-6.7909,-6.7758,0,0,0,0,0,-6.7588,-6.7628,-6.765,-6.7707,-6.772,-6.773,-6.7752,-6.7749,-6.7774,-6.7784,-6.7797,-6.7821,-6.7858,-6.7881,-6.7915,-6.7985,-6.7991,-6.8018,-6.8027,-6.8035,-6.8042,-6.8082,-6.8094,-6.796,-6.796,-6.796,0,0,-6.7618,-6.7639,-6.7664,-6.7714,-6.7733,-6.7775,-6.7738,-6.7783,-6.7813,-6.779,-6.7846,-6.7858,-6.7884,-6.7949,-6.7978,-6.796,-6.808,-6.8042,-6.8048,-6.8051,-6.8089,-6.8102,-6.8113,-6.7964,-6.7963,-6.7962,0,0,-6.7696,-6.7716,-6.7767,-6.7788,-6.7819,-6.7826,-6.7838,-6.7865,-6.7872,-6.7929,-6.7913,-6.7949,-6.8011,-6.8031,-6.805,-6.814,-6.8125,-6.8151,-6.8199,-6.8238,-6.8249,-6.8258,-6.8292,-6.8303,-6.8158,-6.8159,-6.8159,0,-6.773,-6.7794,-6.7794,-6.7841,-6.7864,-6.7848,-6.79,-6.792,-6.7959,-6.7975,-6.7955,-6.8035,-6.8051,-6.8122,-6.8145,-6.816,-6.8174,-6.8148,-6.8248,-6.8257,-6.8266,-6.8297,-6.831,-6.8162,-6.8161,-6.8161,-6.8161,0,-6.7835,-6.7879,-6.7917,-6.7959,-6.7986,-6.8035,-6.8043,-6.807,-6.8066,-6.8075,-6.8134,-6.8154,-6.8193,-6.821,-6.8204,-6.8281,-6.8269,-6.8248,-6.821,-6.8282,-6.8311,-6.8323,-6.8166,-6.8165,-6.8164,-6.8163,0,0,-6.7931,-6.7977,-6.799,-6.8011,-6.8046,-6.8079,-6.8128,-6.8169,-6.8193,-6.8222,-6.8263,-6.8318,-6.8301,-6.8322,-6.8319,-6.8354,-6.8426,-6.8329,-6.833,-6.8347,-6.8513,-6.8528,-6.8542,-6.8417,-6.8419,-6.8421,-6.8511,0,-6.8013,-6.8101,-6.8105,-6.8184,-6.8226,-6.8214,-6.8257,-6.8282,-6.8293,-6.8329,-6.8339,-6.8379,-6.8352,-6.8365,-6.8399,-6.841,-6.8459,-6.8404,-6.8455,-6.8457,-6.8449,-6.8558,-6.8573,-6.8657,-6.8522,-6.8524,-6.8526,0,-6.8118,-6.8154,-6.8239,-6.8272,-6.8289,-6.8328,-6.8367,-6.8402,-6.8431,-6.8437,-6.8463,-6.8456,-6.8506,-6.8468,-6.8538,-6.85,-6.8521,-6.8531,-6.8534,-6.8538,-6.8495,-6.8565,-6.8684,-6.8696,-6.8544,-6.8543,-6.8541,0,-6.8182,-6.8251,-6.8312,-6.8329,-6.8368,-6.8396,-6.8413,-6.844,-6.8466,-6.85,-6.8516,-6.8555,-6.8576,-6.8606,-6.861,-6.8582,-6.8681,-6.8642,-6.8686,-6.8686,-6.8706,-6.8705,-6.883,-6.872,-6.872,-6.872,-6.872,0,-6.8272,-6.8325,-6.8341,-6.8379,-6.8438,-6.8442,-6.85,-6.8515,-6.8541,-6.858,-6.8571,-6.8608,-6.8611,-6.8649,-6.8653,-6.8711,-6.872,-6.8725,-6.8726,-6.8726,-6.8726,-6.874,-6.8734,-6.8723,-6.8722,-6.8722,-6.8721,0,-6.8352,-6.8365,-6.8431,-6.8464,-6.8474,-6.8516,-6.8543,-6.8579,-6.859,-6.864,-6.8652,-6.8669,-6.8713,-6.8721,-6.8773,-6.8776,-6.8845,-6.8839,-6.8836,-6.8835,-6.8879,-6.8875,-6.9017,-6.9037,-6.8914,-6.8915,-6.8916,0,-6.8409,-6.845,-6.8489,-6.8516,-6.8536,-6.8579,-6.8606,-6.8612,-6.8641,-6.868,-6.8711,-6.8756,-6.8792,-6.8864,-6.888,-6.892,-6.8915,-6.8962,-6.8921,-6.8921,-6.8917,-6.8914,-6.8919,-6.897,-6.8971,-6.8972,-6.8973,0,-6.8508,-6.8514,-6.8555,-6.8599,-6.8633,-6.8667,-6.8699,-6.8721,-6.8732,-6.8765,-6.8812,-6.8841,-6.8896,-6.894,-6.8981,-6.8997,-6.8988,-6.8987,-6.8999,-6.9,-6.8997,-6.9,-6.8858,-6.8983,-6.8982,-6.8981,-6.8981,-6.898,-6.8579,-6.8616,-6.865,-6.8697,-6.8723,-6.8754,-6.8791,-6.8808,-6.8848,-6.8895,-6.8896,-6.8949,-6.8979,-6.9034,-6.9053,-6.9094,-6.9079,-6.9096,-6.9101,-6.9105,-6.911,-6.8991,-6.9101,-6.9101,-6.9101,-6.91,-6.91,0,-6.8679,-6.8702,-6.8744,-6.8792,-6.8829,-6.882,-6.8856,-6.8887,-6.8934,-6.8965,-6.9002,-6.9057,-6.9102,-6.9122,-6.9166,-6.9195,-6.9191,-6.9206,-6.9203,-6.9208,-6.912,-6.9106,-6.9208,-6.9208,-6.9208,-6.9208,-6.9208,-6.9208,-6.8735,-6.8798,-6.8809,-6.8885,-6.8907,-6.896,-6.8982,-6.9011,-6.9036,-6.91,-6.9138,-6.9152,-6.9179,-6.9225,-6.9266,-6.927,-6.9287,-6.9304,-6.9307,-6.9225,-6.9214,-6.9203,-6.919,-6.9308,-6.9308,-6.9391,-6.9392,-6.9392]}]]